Regional Weather Roundup
Issued by NWS

Home | Current Version | Previous Version | Text Only | Print | Product List | Glossary Off
Versions: 1 2 3 4 5 6 7 8 9 10 11 12 13 14 15 16 17 18 19 20 21 22 23 24 25 26 27 28 29 30 31 32 33 34 35 36 37 38 39 40 41 42 43 44 45 46 47 48 49 50

000
ASUS43 KDMX 011907
RWRIA

WEATHER ROUNDUP FOR IOWA
NATIONAL WEATHER SERVICE DES MOINES IA
200 PM CDT SAT AUG 01 2015

NOTE: "FAIR" INDICATES FEW OR NO CLOUDS BELOW 12,000 FEET WITH NO
SIGNIFICANT WEATHER AND/OR OBSTRUCTIONS TO VISIBILITY.

* - THESE STATIONS ARE NOT NWS STATIONS...THUS NOT UNDER NWS
QUALITY CONTROL.  THEY ALSO DO NOT REPORT WEATHER SUCH
AS PRECIPITATION OR FOG.

IAZ001>003-012>014-020>022-031>034-043>046-012000-
   NORTHWEST IOWA

CITY           SKY/WX    TMP DP  RH WIND       PRES   REMARKS
CARROLL *      SUNNY     82  70  65 W6        30.00F HX  86
CHEROKEE *     CLOUDY    81  66  61 W10       29.99F HX  83
DENISON *      SUNNY     81  70  69 NW6       29.98F HX  84
LE MARS *      SUNNY     79  68  69 W7        30.00F HX  81
ORANGE CITY *  SUNNY     79  66  65 W10       29.99F HX  81
SHELDON *      SUNNY     81  68  65 SW13G18   29.98F HX  83
SIOUX CITY     CLOUDY    80  66  62 W5        29.98F HX  82
SPENCER        CLOUDY    84  66  54 SW10      29.99F HX  86
STORM LAKE *   SUNNY     81  70  69 W8        30.01F HX  84
$$

IAZ055>058-069>071-079>083-090>094-012000-
   SOUTHWEST IOWA

CITY           SKY/WX    TMP DP  RH WIND       PRES   REMARKS
ATLANTIC *     SUNNY     81  72  74 S6        30.00F HX  84
AUDUBON *      SUNNY     84  68  58 CALM      30.01F HX  87
CLARINDA *     SUNNY     84  72  65 CALM      30.03F HX  89
COUNCIL BLFS * SUNNY     79  68  69 S5        30.02S HX  81
CRESTON *      SUNNY     81  72  74 SW3       30.04S HX  84
HARLAN  *      SUNNY     81  77  89 SW5       30.04S HX  88
LAMONI         CLOUDY    85  74  69 SW8       30.01F HX  92
RED OAK *      SUNNY     82  70  65 S6        30.01F HX  86
SHENANDOAH *   SUNNY     82  70  65 SE5       30.01F HX  86
$$

IAZ047>049-059>061-072>074-084-012000-
   CENTRAL IOWA

CITY           SKY/WX    TMP DP  RH WIND       PRES   REMARKS
AMES           PTSUNNY   84  73  69 W12       29.99S HX  90
ANKENY *       SUNNY     86  72  62 SW5G12    29.98F HX  92
CHARITON *     SUNNY     82  72  69 W7G15     30.01F HX  87
DES MOINES     PTSUNNY   86  71  60 W9        29.98F HX  91
GRINNELL*      MOSUNNY   82  72  69 SW9       30.00S HX  87
KNOXVILLE *    SUNNY     82  70  65 SW8       29.98F HX  86
MARSHALLTOWN   PTSUNNY   84  71  65 W9        29.98F HX  89
PELLA *        MOSUNNY   86  75  70 SW7       30.00F HX  95
PERRY *          N/A     84  73  70 SW7       29.99F HX  91
$$

IAZ004>006-015-016-023>025-035-036-012000-
   NORTH CENTRAL IOWA

CITY           SKY/WX    TMP DP  RH WIND       PRES   REMARKS
ALGONA *       SUNNY     84  68  58 W15G21    29.99S HX  87
CLARION *      SUNNY     82  72  69 W9        29.99S HX  87
ESTHERVILLE    PTSUNNY   82  66  58 W10       29.99S HX  84
FORT DODGE *   CLOUDY    84  70  61 W9        30.00S HX  88
MASON CITY     MOSUNNY   85  69  58 W8        29.99F HX  89
FOREST CITY *  SUNNY     82  68  61 W8        29.98S HX  85
IOWA FALLS *     N/A     84  70  61 SW9       30.00S HX  88
$$

IAZ007>011-017>019-026>030-037>042-050>054-066-012000-
   NORTHEAST IOWA

CITY           SKY/WX    TMP DP  RH WIND       PRES   REMARKS
CEDAR RAPIDS   PTSUNNY   82  69  64 W10       29.97F HX  85
CHARLES CITY * SUNNY     82  70  65 NW7G14    29.98S HX  86
CLINTON *      MOSUNNY   84  64  51 W10       29.99F HX  86
DECORAH *      SUNNY     82  63  51 NW10      29.95F HX  83
DUBUQUE        MOSUNNY   83  68  60 W13G21    29.96F HX  86
MONTICELLO *   SUNNY     84  68  58 SW13      29.96F HX  87
OELWEIN *      MOSUNNY   82  70  65 NW9G17    29.98S HX  86
WATERLOO       PTSUNNY   85  69  58 W7        29.95F HX  89
$$

IAZ064-065-067-068-078-012000-
   EAST CENTRAL IOWA

CITY           SKY/WX    TMP DP  RH WIND       PRES   REMARKS
DAVENPORT      MOSUNNY   83  62  49 SW13      29.98F HX  84
IOWA CITY      MOSUNNY   85  64  49 W10G20    29.99F HX  86
MT. PLEASANT * PTSUNNY   86  59  39 S8        29.99F HX  85
MUSCATINE *    SUNNY     88  61  40 SW13G18   29.98F HX  88
QUAD CITIES    MOSUNNY   86  60  41 SW14G21   29.97F HX  86
$$

IAZ062-063-075>077-085>089-095>099-012000-
   SOUTHEAST IOWA

CITY           SKY/WX    TMP DP  RH WIND       PRES   REMARKS
BURLINGTON     PTSUNNY   82  65  56 SW8       29.99F HX  84
FAIRFIELD *    SUNNY     84  68  58 SW10      29.99F HX  87
FORT MADISON * SUNNY     81  66  61 S7        30.01F HX  83
KEOKUK *       SUNNY     84  68  58 S6G14     30.00S HX  87
OSKALOOSA *      N/A     82  72  69 SW7       29.99F HX  87
CENTERVILLE *  SUNNY     84  72  65 S3        30.02S HX  89
OTTUMWA        PTSUNNY   84  73  69 SW9       29.98F HX  90
WASHINGTON *   SUNNY     84  68  58 SW8G16    30.00S HX  87
$$

ABBREVIATIONS USED IN REMARKS
   TC - TEMPERATURES IN CELSIUS
  WCI - WIND CHILL INDEX
   HX - HEAT INDEX
  VSB - VISIBILITY
$$




USA.gov is the U.S. government's official web portal to all federal, state and local government web resources and services.